Location: New Mesquite
(33.1168°N, 96.4336°W)
Time: 05:43:39
(UTC+00:00)

Cosmos 1538 Rocket - Pass Details

Date: 08 July 2022
Orbit: 752 x 791 km, 74.0° (Epoch: 11 August)

Event Time Altitude Azimuth Distance (km) Brightness Sun altitude
Exits shadow 10:25:34 12° 208° (SSW) 2,187 5.8 -11.2°
Maximum altitude 10:30:26 62° 288° (WNW) 852 4.1 -10.4°
Drops below altitude 10° 10:35:34 10° 9° (N) 2,289 7.1 -9.5°
Sets 10:37:58 0° 13° (NNE) 3,213 8.0 -9.1°
